Find Starlink 30313

NORAD ID: 57676 Int'l Des: 2023-124 Owner: SPXS Country: US Constellation: starlink operational
LEOCIRCULAR

Live-Position

3D-Globus wird geladen...

Über Starlink 30313

Beschreibung wird geladen...

Nächste Überflüge

Passes for default location (London). Set your location on the main map for personalized predictions.

Höhenverlauf

Loading altitude history...

Zweizeiliger Elementsatz

1 57676U 23124P 26125.75892461 .00001271 00000-0 55037-4 0 9996
2 57676 53.1617 301.9001 0001276 88.1551 271.9596 15.30194312152303
Epoch: 5. Mai 2026 • Age: 29 hours

Aktueller Status

Höhe 475.1 km
Geschwindigkeit 7.63 km/s
Subsatellitenpunkt 16.97°N, 108.46°W
Startdatum 22. Aug. 2023
Alter 2.7 years
Typ internet

Technische Details

Klassifizierung Payload
Masse 730.00 kg
Trockenmasse 700.00 kg
Gesamtmasse 730.00 kg
Länge 0.30 m
Durchmesser 4.10 m
Spannweite 29.00 m
Form Box + pan
Hersteller SPXS
Bus-Typ Starlink V2M
Phasenstatus In Orbit
Besitzer/Staat SPXS/US

Most Searched